Weather History for Pittsfield, IL

Change the Weather History Date:

Saturday, January 19, 2013

  Actual Average (KUIN) Record (KUIN)
Temperature  
Mean Temperature 49 °F 26 °F  
Max Temperature 57 °F 34 °F 67 °F (1951)
Min Temperature 41 °F 18 °F -19 °F (1985)
Degree Days  
Heating Degree Days 16 39  
Month to date heating degree days 737  
Since 1 July heating degree days 2928  
Cooling Degree Days 0 0  
Month to date cooling degree days 0  
Year to date cooling degree days 0  
Moisture  
Dew Point 32 °F    
Average Humidity 53    
Maximum Humidity 67    
Minimum Humidity 43    
Precipitation  
Precipitation 0.00 in 0.05 in 2.68 in (1907)
Month to date precipitation 0.96  
Year to date precipitation 0.96  
Sea Level Pressure  
Sea Level Pressure 30.00 in    
Wind  
Wind Speed 15 mph (WSW)    
Max Wind Speed 23 mph    
Max Gust Speed 30 mph    
Visibility 10 miles    
Events      
T = Trace of Precipitation, MM = Missing Value Source: NWS Daily Summary

Daily Weather History Graph

Daily Weather History Graph

Search for Another Location

Airport:

Trip Planner

Search our weather history database for the weather conditions in past years. The results will help you decide how hot, cold, wet, or windy it might be!

Date:

Astronomy

Jan. 19, 2013 Rise Set
Actual Time 7:20 AM CST 5:08 PM CST
Civil Twilight 6:50 AM CST 5:37 PM CST
Nautical Twilight 6:17 AM CST 6:10 PM CST
Astronomical Twilight 5:45 AM CST 6:42 PM CST
Moon 11:34 AM CST (1/19) 12:54 AM CST (1/19)
Length of Visible Light 10h 46m
Length of Day
9h 47m
First Quarter, 57% of the Moon is Illuminated
Jan 19
First Quarter
Jan 26
Full
Feb 3
Last Quarter
Feb 10
New
Feb 17
First Quarter

Hourly Weather History & Observations

Time (CST) Temp. Windchill Dew Point Humidity Pressure Visibility Wind Dir Wind Speed Gust Speed Precip Events Conditions
12:15 AM 44.8 °F 38.0 °F 27.0 °F 50% 30.06 in 10.0 mi SSW 15.0 mph - N/A   Clear
12:35 AM 44.6 °F 37.4 °F 26.8 °F 50% 30.06 in 10.0 mi SSW 16.1 mph - N/A   Clear
12:55 AM 44.6 °F 37.8 °F 27.0 °F 50% 30.05 in 10.0 mi SSW 15.0 mph 20.7 mph N/A   Clear
1:15 AM 45.0 °F 37.4 °F 26.6 °F 49% 30.05 in 10.0 mi SSW 18.4 mph 23.0 mph N/A   Clear
1:35 AM 45.1 °F 36.6 °F 26.6 °F 48% 30.05 in 10.0 mi SSW 23.0 mph 27.6 mph N/A   Clear
1:55 AM 45.0 °F 37.4 °F 27.0 °F 49% 30.05 in 10.0 mi SSW 18.4 mph 26.5 mph N/A   Clear
2:15 AM 44.6 °F 36.4 °F 27.3 °F 51% 30.05 in 10.0 mi SSW 20.7 mph 26.5 mph N/A   Clear
2:35 AM 44.6 °F 37.2 °F 27.7 °F 52% 30.05 in 10.0 mi SSW 17.3 mph 26.5 mph N/A   Clear
2:55 AM 44.6 °F 36.9 °F 28.0 °F 52% 30.04 in 10.0 mi SSW 18.4 mph 25.3 mph N/A   Clear
3:15 AM 43.9 °F 37.5 °F 28.2 °F 54% 30.04 in 10.0 mi SW 12.7 mph 21.9 mph N/A   Clear
3:35 AM 43.7 °F 36.9 °F 28.4 °F 55% 30.03 in 10.0 mi SSW 13.8 mph 23.0 mph N/A   Clear
3:55 AM 43.5 °F 36.7 °F 28.6 °F 56% 30.02 in 10.0 mi SW 13.8 mph 23.0 mph N/A   Clear
4:15 AM 43.9 °F 36.5 °F 29.1 °F 56% 30.02 in 10.0 mi SW 16.1 mph 24.2 mph N/A   Clear
4:35 AM 44.8 °F 37.4 °F 29.8 °F 56% 30.01 in 10.0 mi SSW 17.3 mph 24.2 mph N/A   Clear
4:55 AM 43.7 °F 36.3 °F 29.7 °F 58% 30.01 in 10.0 mi SSW 16.1 mph - N/A   Clear
5:15 AM 42.8 °F 35.8 °F 29.3 °F 59% 30.01 in 10.0 mi SSW 13.8 mph 21.9 mph N/A   Clear
5:35 AM 41.9 °F 34.6 °F 29.8 °F 62% 30.01 in 10.0 mi SSW 13.8 mph 18.4 mph N/A   Clear
6:55 AM 41.9 °F 34.3 °F 30.2 °F 63% 29.99 in 10.0 mi SSW 15.0 mph - N/A   Clear
7:15 AM 41.9 °F 34.6 °F 30.2 °F 63% 29.99 in 10.0 mi SSW 13.8 mph - N/A   Clear
7:55 AM 42.8 °F 36.6 °F 30.7 °F 62% 29.99 in 10.0 mi SSW 11.5 mph - N/A   Clear
8:35 AM 45.0 °F 38.9 °F 31.5 °F 59% 29.99 in 10.0 mi SSW 12.7 mph 18.4 mph N/A   Clear
9:35 AM 48.6 °F - 32.4 °F 54% 29.98 in 10.0 mi SW 16.1 mph 21.9 mph N/A   Clear
9:55 AM 49.5 °F - 32.5 °F 52% 29.98 in 10.0 mi SW 20.7 mph 28.8 mph N/A   Clear
10:15 AM 50.2 °F - 33.1 °F 52% 29.98 in 10.0 mi SW 15.0 mph 26.5 mph N/A   Clear
10:35 AM 50.9 °F - 33.3 °F 51% 29.97 in 10.0 mi WSW 17.3 mph 28.8 mph N/A   Clear
11:15 AM 51.8 °F - 33.8 °F 50% 29.94 in 10.0 mi SW 20.7 mph 27.6 mph N/A   Clear
11:35 AM 52.7 °F - 35.2 °F 52% 29.93 in 10.0 mi SW 21.9 mph 26.5 mph N/A   Clear
11:55 AM 53.1 °F - 35.6 °F 52% 29.91 in 10.0 mi SW 16.1 mph 27.6 mph N/A   Clear
12:15 PM 54.1 °F - 36.0 °F 50% 29.91 in 10.0 mi SW 19.6 mph 26.5 mph N/A   Clear
12:35 PM 55.4 °F - 35.6 °F 47% 29.91 in 10.0 mi WSW 20.7 mph 29.9 mph N/A   Clear
12:55 PM 56.3 °F - 35.8 °F 46% 29.89 in 10.0 mi SW 19.6 mph 24.2 mph N/A   Clear
1:15 PM 55.9 °F - 35.8 °F 47% 29.90 in 10.0 mi SW 20.7 mph 26.5 mph N/A   Clear
1:35 PM 56.3 °F - 35.6 °F 46% 29.90 in 10.0 mi WSW 18.4 mph 25.3 mph N/A   Clear
1:55 PM 56.7 °F - 36.1 °F 46% 29.89 in 10.0 mi WSW 17.3 mph 23.0 mph N/A   Clear
2:15 PM 56.3 °F - 35.8 °F 46% 29.90 in 10.0 mi WSW 13.8 mph 24.2 mph N/A   Clear
2:35 PM 57.2 °F - 35.6 °F 44% 29.89 in 10.0 mi WSW 18.4 mph 27.6 mph N/A   Clear
2:55 PM 57.2 °F - 35.4 °F 44% 29.89 in 10.0 mi WSW 15.0 mph 24.2 mph N/A   Clear
3:15 PM 57.2 °F - 34.7 °F 43% 29.90 in 10.0 mi WSW 18.4 mph 25.3 mph N/A   Clear
3:35 PM 57.0 °F - 35.4 °F 44% 29.91 in 10.0 mi WSW 16.1 mph 21.9 mph N/A   Clear
3:55 PM 56.8 °F - 35.4 °F 45% 29.91 in 10.0 mi WSW 12.7 mph 18.4 mph N/A   Clear
4:15 PM 56.1 °F - 35.6 °F 46% 29.91 in 10.0 mi WSW 13.8 mph - N/A   Clear
4:35 PM 55.2 °F - 35.8 °F 48% 29.92 in 10.0 mi WSW 11.5 mph - N/A   Clear
4:55 PM 54.5 °F - 35.6 °F 49% 29.93 in 10.0 mi WSW 12.7 mph - N/A   Clear
5:15 PM 52.9 °F - 36.0 °F 53% 29.94 in 10.0 mi WSW 9.2 mph - N/A   Clear
5:35 PM 51.8 °F - 35.6 °F 54% 29.96 in 10.0 mi WSW 9.2 mph - N/A   Clear
5:55 PM 50.9 °F - 35.6 °F 56% 29.96 in 10.0 mi WSW 9.2 mph - N/A   Clear
6:15 PM 50.0 °F - 34.9 °F 56% 29.98 in 10.0 mi WSW 9.2 mph - N/A   Clear
6:35 PM 50.5 °F - 34.3 °F 54% 29.99 in 10.0 mi WSW 9.2 mph - N/A   Clear
6:55 PM 50.0 °F - 34.0 °F 54% 30.00 in 10.0 mi WSW 9.2 mph - N/A   Clear
7:15 PM 49.8 °F - 33.8 °F 54% 30.01 in 10.0 mi WSW 9.2 mph - N/A   Clear
7:35 PM 49.1 °F - 33.3 °F 54% 30.02 in 10.0 mi WSW 9.2 mph - N/A   Clear
7:55 PM 47.3 °F - 32.9 °F 57% 30.03 in 10.0 mi West 6.9 mph - N/A   Clear
8:15 PM 48.2 °F - 32.4 °F 54% 30.04 in 10.0 mi West 9.2 mph - N/A   Clear
8:35 PM 47.5 °F - 32.2 °F 55% 30.06 in 10.0 mi West 9.2 mph - N/A   Clear
8:55 PM 46.8 °F - 32.0 °F 57% 30.06 in 7.0 mi WNW 10.4 mph - N/A   Clear
9:15 PM 46.6 °F - 31.1 °F 55% 30.07 in 10.0 mi WNW 10.4 mph - N/A   Clear
9:35 PM 45.9 °F 41.7 °F 30.9 °F 56% 30.08 in 10.0 mi West 8.1 mph - N/A   Clear
9:55 PM 44.1 °F 39.5 °F 31.1 °F 60% 30.08 in 10.0 mi West 8.1 mph - N/A   Clear
10:15 PM 45.0 °F 40.1 °F 31.1 °F 58% 30.09 in 10.0 mi WNW 9.2 mph 18.4 mph N/A   Clear
10:35 PM 44.6 °F 38.8 °F 30.2 °F 57% 30.10 in 10.0 mi WNW 11.5 mph 16.1 mph N/A   Clear
10:55 PM 43.7 °F 37.3 °F 30.4 °F 59% 30.11 in 10.0 mi WNW 12.7 mph 20.7 mph N/A   Clear
11:15 PM 43.7 °F 36.0 °F 30.6 °F 60% 30.12 in 10.0 mi WNW 17.3 mph 25.3 mph N/A   Clear
11:35 PM 42.8 °F 35.4 °F 31.1 °F 63% 30.13 in 10.0 mi WNW 15.0 mph 20.7 mph N/A   Clear
11:55 PM 41.4 °F 34.7 °F 31.1 °F 67% 30.13 in 10.0 mi WNW 11.5 mph 18.4 mph N/A   Clear